Location: Tauranga
(37.6860°S, 176.1670°E)
Time: 02:21:43
(UTC+13:00)

Nimbus 7 Rocket - Pass Details

Date: 24 January 2019
Orbit: 922 x 966 km, 99.5° (Epoch: 15 February)

Event Time Altitude Azimuth Distance (km) Brightness Sun altitude
Exits shadow 22:38:54 38° 32° (NNE) 1,400 4.8 -20.7°
Maximum altitude 22:41:17 73° 107° (ESE) 988 4.4 -21.0°
Drops below altitude 10° 22:47:16 10° 190° (S) 2,690 7.6 -21.8°
Sets 22:49:45 0° 191° (SSW) 3,648 8.5 -22.1°
